When you browse on this site, cookies collect data to enhance your experience and personalize the content and advertising you see.
Visit our Privacy Policy to learn more. By continuing to use the site, you agree to this use of cookies and data.

Stündliche Wetter Annaba

Heute, 14 Juli, Dienstag

Zeit Temperatur Niederschläge Wind Luftdruck Luftfeuchtigkeit
00:00 +25°C° 0 mm 1 m/S 758 mmHg 84%
01:00 +24°C° 0 mm 1 m/S 758 mmHg 84%
02:00 +24°C° 0 mm 1 m/S 758 mmHg 86%
03:00 +24°C° 0 mm 1 m/S 758 mmHg 87%
04:00 +24°C° 0 mm 2 m/S 758 mmHg 88%
05:00 +24°C° 0 mm 2 m/S 758 mmHg 85%
06:00 +25°C° 0 mm 2 m/S 758 mmHg 82%
07:00 +26°C° 0 mm 2 m/S 758 mmHg 79%
08:00 +27°C° 0 mm 2 m/S 758 mmHg 70%
09:00 +29°C° 0 mm 2 m/S 758 mmHg 61%
10:00 +31°C° 0 mm 2 m/S 759 mmHg 51%
11:00 +31°C° 0 mm 3 m/S 758 mmHg 50%
12:00 +33°C° 0 mm 3 m/S 758 mmHg 48%
13:00 +34°C° 0 mm 4 m/S 758 mmHg 46%
14:00 +33°C° 0 mm 4 m/S 757 mmHg 47%
15:00 +33°C° 0 mm 4 m/S 757 mmHg 49%
16:00 +32°C° 0 mm 4 m/S 756 mmHg 50%
17:00 +30°C° 0 mm 4 m/S 757 mmHg 53%
18:00 +29°C° 0 mm 3 m/S 757 mmHg 57%
19:00 +28°C° 0 mm 2 m/S 758 mmHg 60%
20:00 +28°C° 0 mm 2 m/S 758 mmHg 65%
21:00 +27°C° 0 mm 1 m/S 758 mmHg 69%
22:00 +26°C° 0 mm 1 m/S 759 mmHg 74%
23:00 +26°C° 0 mm 1 m/S 758 mmHg 75%

Morgen, 15 Juli, Mittwoch

Zeit Temperatur Niederschläge Wind Luftdruck Luftfeuchtigkeit
00:00 +25°C° 0 mm 1 m/S 758 mmHg 77%
01:00 +23°C° 0 mm 0 m/S 758 mmHg 79%
02:00 +25°C° 0.1 mm 1 m/S 758 mmHg 80%
03:00 +24°C° 0.1 mm 1 m/S 758 mmHg 81%
04:00 +24°C° 0.1 mm 1 m/S 757 mmHg 82%
05:00 +25°C° 0.1 mm 1 m/S 758 mmHg 80%
06:00 +25°C° 0.1 mm 1 m/S 758 mmHg 78%
07:00 +23°C° 0.1 mm 0 m/S 758 mmHg 76%
08:00 +27°C° 0 mm 1 m/S 758 mmHg 69%
09:00 +29°C° 0 mm 2 m/S 759 mmHg 62%
10:00 +30°C° 0 mm 3 m/S 759 mmHg 56%
11:00 +32°C° 0 mm 4 m/S 759 mmHg 55%
12:00 +32°C° 0 mm 5 m/S 759 mmHg 54%
13:00 +33°C° 0 mm 6 m/S 758 mmHg 53%
14:00 +33°C° 0 mm 5 m/S 758 mmHg 52%
15:00 +33°C° 0 mm 5 m/S 758 mmHg 52%
16:00 +33°C° 0 mm 4 m/S 758 mmHg 51%
17:00 +30°C° 0 mm 4 m/S 758 mmHg 55%
18:00 +29°C° 0 mm 4 m/S 759 mmHg 59%
19:00 +28°C° 0 mm 4 m/S 759 mmHg 63%
20:00 +27°C° 0 mm 3 m/S 760 mmHg 68%
21:00 +26°C° 0 mm 2 m/S 760 mmHg 74%
22:00 +25°C° 0 mm 1 m/S 761 mmHg 79%
23:00 +25°C° 0 mm 1 m/S 761 mmHg 80%

übermorgen, 16 Juli, Donnerstag

Zeit Temperatur Niederschläge Wind Luftdruck Luftfeuchtigkeit
00:00 +24°C° 0 mm 1 m/S 761 mmHg 81%
01:00 +24°C° 0 mm 1 m/S 760 mmHg 82%
02:00 +24°C° 0 mm 1 m/S 760 mmHg 82%
03:00 +24°C° 0 mm 1 m/S 760 mmHg 83%
04:00 +24°C° 0 mm 1 m/S 759 mmHg 83%
05:00 +24°C° 0 mm 1 m/S 759 mmHg 79%
06:00 +25°C° 0 mm 1 m/S 760 mmHg 75%
07:00 +24°C° 0 mm 0 m/S 760 mmHg 71%
08:00 +27°C° 0 mm 1 m/S 760 mmHg 65%
09:00 +29°C° 0 mm 2 m/S 760 mmHg 58%
10:00 +30°C° 0 mm 3 m/S 760 mmHg 52%
11:00 +31°C° 0 mm 3 m/S 760 mmHg 50%
12:00 +32°C° 0 mm 4 m/S 760 mmHg 49%
13:00 +33°C° 0 mm 4 m/S 760 mmHg 47%
14:00 +32°C° 0 mm 4 m/S 760 mmHg 47%
15:00 +32°C° 0 mm 5 m/S 759 mmHg 48%
16:00 +30°C° 0 mm 5 m/S 759 mmHg 48%
17:00 +29°C° 0 mm 4 m/S 759 mmHg 53%
18:00 +28°C° 0 mm 4 m/S 759 mmHg 57%
19:00 +27°C° 0 mm 3 m/S 760 mmHg 62%
20:00 +26°C° 0 mm 3 m/S 760 mmHg 68%
21:00 +25°C° 0 mm 2 m/S 760 mmHg 73%
22:00 +24°C° 0 mm 1 m/S 761 mmHg 79%
23:00 +24°C° 0 mm 1 m/S 760 mmHg 80%

17 Juli, Freitag

Zeit Temperatur Niederschläge Wind Luftdruck Luftfeuchtigkeit
00:00 +23°C° 0 mm 1 m/S 760 mmHg 81%
01:00 +23°C° 0 mm 1 m/S 760 mmHg 82%
02:00 +23°C° 0 mm 1 m/S 759 mmHg 82%
03:00 +23°C° 0 mm 1 m/S 759 mmHg 81%
04:00 +23°C° 0 mm 1 m/S 759 mmHg 81%
05:00 +24°C° 0 mm 1 m/S 759 mmHg 78%
06:00 +24°C° 0 mm 2 m/S 759 mmHg 75%
07:00 +25°C° 0 mm 2 m/S 759 mmHg 72%
08:00 +26°C° 0 mm 2 m/S 759 mmHg 65%
09:00 +28°C° 0 mm 3 m/S 760 mmHg 59%
10:00 +29°C° 0 mm 3 m/S 760 mmHg 52%
11:00 +30°C° 0 mm 4 m/S 759 mmHg 49%
12:00 +30°C° 0 mm 4 m/S 759 mmHg 47%
13:00 +32°C° 0 mm 5 m/S 759 mmHg 45%
14:00 +30°C° 0 mm 5 m/S 759 mmHg 46%
15:00 +30°C° 0 mm 5 m/S 758 mmHg 48%
16:00 +30°C° 0 mm 5 m/S 758 mmHg 49%
17:00 +29°C° 0 mm 5 m/S 758 mmHg 54%
18:00 +28°C° 0 mm 5 m/S 758 mmHg 59%
19:00 +27°C° 0 mm 4 m/S 758 mmHg 64%
20:00 +26°C° 0 mm 4 m/S 759 mmHg 69%
21:00 +25°C° 0 mm 3 m/S 759 mmHg 75%
22:00 +22°C° 0 mm 3 m/S 760 mmHg 81%
23:00 +22°C° 0 mm 3 m/S 760 mmHg 81%

18 Juli, Samstag

Zeit Temperatur Niederschläge Wind Luftdruck Luftfeuchtigkeit
00:00 +22°C° 0 mm 3 m/S 759 mmHg 82%
01:00 +22°C° 0 mm 3 m/S 759 mmHg 83%
02:00 +22°C° 0 mm 3 m/S 759 mmHg 83%
03:00 +22°C° 0 mm 3 m/S 759 mmHg 82%
04:00 +22°C° 0 mm 3 m/S 759 mmHg 82%
05:00 +22°C° 0 mm 3 m/S 759 mmHg 78%
06:00 +23°C° 0 mm 4 m/S 759 mmHg 73%
07:00 +25°C° 0 mm 4 m/S 759 mmHg 69%
08:00 +26°C° 0 mm 5 m/S 759 mmHg 63%
09:00 +28°C° 0 mm 5 m/S 759 mmHg 57%
10:00 +29°C° 0 mm 5 m/S 759 mmHg 51%
11:00 +30°C° 0 mm 6 m/S 759 mmHg 51%
12:00 +30°C° 0 mm 6 m/S 759 mmHg 50%
13:00 +32°C° 0 mm 7 m/S 759 mmHg 49%
14:00 +30°C° 0 mm 6 m/S 759 mmHg 51%
15:00 +30°C° 0 mm 6 m/S 759 mmHg 52%
16:00 +30°C° 0 mm 6 m/S 759 mmHg 53%
17:00 +29°C° 0 mm 5 m/S 759 mmHg 58%
18:00 +28°C° 0 mm 4 m/S 759 mmHg 63%
19:00 +27°C° 0 mm 3 m/S 759 mmHg 68%
20:00 +26°C° 0 mm 3 m/S 760 mmHg 73%
21:00 +25°C° 0 mm 2 m/S 760 mmHg 78%
22:00 +24°C° 0 mm 1 m/S 760 mmHg 84%
23:00 +23°C° 0 mm 1 m/S 760 mmHg 85%

19 Juli, Sonntag

Zeit Temperatur Niederschläge Wind Luftdruck Luftfeuchtigkeit
00:00 +23°C° 0 mm 1 m/S 760 mmHg 86%
01:00 +23°C° 0 mm 2 m/S 760 mmHg 87%
02:00 +23°C° 0 mm 2 m/S 760 mmHg 88%
03:00 +23°C° 0 mm 2 m/S 760 mmHg 88%
04:00 +22°C° 0 mm 1 m/S 759 mmHg 89%
05:00 +23°C° 0 mm 2 m/S 760 mmHg 85%
06:00 +24°C° 0 mm 2 m/S 760 mmHg 81%
07:00 +25°C° 0 mm 2 m/S 760 mmHg 77%
08:00 +26°C° 0 mm 2 m/S 760 mmHg 69%
09:00 +28°C° 0 mm 2 m/S 760 mmHg 61%
10:00 +30°C° 0 mm 2 m/S 761 mmHg 53%
11:00 +30°C° 0 mm 3 m/S 760 mmHg 51%
12:00 +32°C° 0 mm 4 m/S 760 mmHg 50%
13:00 +32°C° 0 mm 4 m/S 760 mmHg 48%
14:00 +32°C° 0 mm 4 m/S 760 mmHg 49%
15:00 +32°C° 0 mm 4 m/S 760 mmHg 50%
16:00 +32°C° 0 mm 4 m/S 760 mmHg 51%
17:00 +30°C° 0 mm 4 m/S 760 mmHg 55%
18:00 +29°C° 0 mm 3 m/S 760 mmHg 59%
19:00 +28°C° 0 mm 2 m/S 760 mmHg 63%
20:00 +26°C° 0 mm 2 m/S 760 mmHg 69%
21:00 +25°C° 0 mm 1 m/S 761 mmHg 76%
22:00 +22°C° 0 mm 0 m/S 761 mmHg 82%
23:00 +22°C° 0 mm 0 m/S 761 mmHg 83%
Mehr zeigen